Regional Weather Roundup
Issued by NWS

Home | Current Version | Previous Version | Text Only | Print | Product List | Glossary On
Versions: 1 2 3 4 5 6 7 8 9 10 11 12 13 14 15 16 17 18 19 20 21 22 23 24 25 26 27 28 29 30 31 32 33 34 35 36 37 38 39 40 41 42 43 44 45 46 47 48 49 50
000
ASUS44 KLUB 170210
RWRTX
WEST TEXAS WEATHER ROUNDUP
NATIONAL WEATHER SERVICE LUBBOCK TX
900 PM CDT TUE SEP 16 2014

NOTE: "FAIR" INDICATES FEW OR NO CLOUDS BELOW 12,000 FEET WITH NO
SIGNIFICANT WEATHER AND/OR OBSTRUCTIONS TO VISIBILITY.

TXZ004-006>008-010-012-014-016-OKZ002-170300-
TEXAS PANHANDLE/OKLAHOMA PANHANDLE

CITY           SKY/WX    TMP DP  RH WIND       PRES   REMARKS
AMARILLO       CLOUDY    70  62  76 SW8       30.12R
BORGER         CLOUDY    77  62  59 S10       30.07S
CANADIAN       MOCLDY    76  66  69 S10       30.02F
DALHART        CLOUDY    68  59  73 S9        30.12S
DUMAS          CLOUDY    69  62  78 S8        30.10S
GUYMON         CLEAR     71  62  73 S9        30.03S
HEREFORD       CLOUDY    71  65  80 SW12      30.15R
PAMPA          CLOUDY    71  61  70 S8        30.10R
PERRYTON       CLEAR     72  60  65 SW7       30.05R
$$

TXZ026-029-035-045-048-170300-
SOUTHERN PANHANDLE/SOUTH PLAINS/ROLLING PLAINS

CITY           SKY/WX    TMP DP  RH WIND       PRES   REMARKS
CHILDRESS      CLOUDY    79  65  62 SW9       30.05R
SEMINOLE       MOCLDY    69  66  91 NE5       30.14S
LUBBOCK        LGT RAIN  69  67  93 SW5       30.13R
PLAINVIEW      CLOUDY    70  66  88 W10       30.12R
SNYDER         LGT RAIN  69  67  92 N3        30.10S
$$

TXZ052-054-060>062-072-078-127-140-154-169-170300-
PERMIAN BASIN/CONCHO VALLEY/BIG COUNTRY/EDWARDS PLATEAU

CITY           SKY/WX    TMP DP  RH WIND       PRES   REMARKS
ABILENE        CLOUDY    82  64  54 NE6       30.05R
BIG SPRING     CLOUDY    76  66  71 NE9       30.10S
BRADY            N/A     81  68  65 E5        30.04R
BROWNWOOD      MOCLDY    81  64  57 E8        30.02R
JUNCTION       CLOUDY    84  66  54 SE8       30.02R
MIDLAND        CLOUDY    77  66  68 NE9       30.09R
ODESSA         CLOUDY    77  65  66 E10       30.10R
SAN ANGELO     CLOUDY    82  66  58 E5        30.03R
SONORA         PTCLDY    77  68  73 S7        30.09R
SWEETWATER     CLOUDY    74  68  80 NW3       30.12R
WINK           PTCLDY    78  63  59 E5        30.06R
$$

TXZ055-058-074-075-080-082-170300-
FAR WEST/SOUTHWEST MOUNTAINS/TRANS PECOS

CITY           SKY/WX    TMP DP  RH WIND       PRES   REMARKS
ALPINE         PTCLDY    72  59  65 SE6       30.21R
DRYDEN           N/A     83  66  56 E5        30.01R
EL PASO        CLOUDY    76  63  64 N13       30.08R
FORT STOCKTON  CLEAR     76  63  64 SE5       30.08R
GUADALUPE PASS MOCLDY    64  61  90 NE25      30.22R
MARFA          PTCLDY    66  59  77 NE9       30.19R
PECOS          PTCLDY    76  63  62 E7        30.05R
PRESIDIO       FAIR      83  60  46 NE5       30.00R
$$

TXZ014-016-019-021>030-083-170300
TEXAS TECH WEST TEXAS MESONET/TEXAS PANHANDLE/NORTHERN SOUTH PLAINS

CITY           SKY/WX    TMP DP  RH WIND       PRES   REMARKS
ABERNATHY 5ENE   N/A     68  65  89 SW6       30.16R
AMARILLO 9NNE    N/A     69  63  82 S6        30.11R
AMARILLO 7SSE    N/A     68  63  83 SW6       30.14R
AMHERST 1NE    LGT RAIN  66  65  95 W2        30.16S
BOOTLEG 11WNW    N/A     67  61  80 SW13      30.20R
CANADIAN 6E      N/A     74  65  72 S9        30.03S
CAPROCK CYN SP   N/A     73  64  71 SW8       30.10R
CLARENDON 2WSW   N/A     75  63  64 SE10      30.09S
CLAUDE 12SW      N/A     74  62  66 SW8       30.12S
DIMMITT 2NE      N/A     68  61  79 SW13      30.17R
FLOYDADA 2NNE    N/A     69  65  86 SW10      30.12S
FRIONA 2NE       N/A     68  61  78 SW10      30.18R
GOODLETT 3W      N/A     77  65  65 S8        30.02R
HART 3N          N/A     68  62  82 SW8       30.16R
HEREFORD 2NW     N/A     69  61  75 SW9       30.18R
MCLEAN 1E        N/A     72  64  75 S7        30.08S
MEMPHIS 1NE      N/A     78  63  61 S5        30.05S
MULESHOE 2SSW    N/A     66  64  93 NW5       30.17R
OLTON 6S         N/A     68  62  82 W8        30.16R
PALO DURO SP     N/A     73  62  68 SW6       30.13S
PAMPA 2E         N/A     72  63  74 S9        30.10S
PLAINVIEW 1S     N/A     69  66  89 SW8       30.14R
SILVERTON 7ESE   N/A     70  63  78 S7        30.11R
TULIA 2ENE       N/A     70  65  82 SW8       30.14R
TURKEY 2WSW      N/A     74  64  72 SW8       30.08S
UMBARGER 3NNE    N/A     70  63  78 SW10      30.15S
$$

TXZ033>036-039>041-045>048-170300
TEXAS TECH WEST TEXAS MESONET/SOUTH PLAINS

CITY           SKY/WX    TMP DP  RH WIND       PRES   REMARKS
AIKEN 3WSW       N/A     69  66  90 SW8       30.15R
ANDREWS 2NE      N/A     71  66  82 N9        30.14R
ANTON 6SSW       N/A     68  67  94 W5        30.14S
BROWNFIELD 2S    N/A     69  65  89 N2        30.14S
DENVR CTY 7WNW   N/A     67  64  90 N5        30.16S
GAIL 2ESE        N/A     70  67  91 N3        30.10S
LAMESA 2SE       N/A     70  66  88 E6        30.12S
LEVELLAND 4S   LGT RAIN  67  65  91 W5        30.16S
LUBBOCK 3WNW     N/A     68  66  92 S3        30.15R
MORTON 1ENE      N/A     67  65  94 S6        30.17S
ODONNELL 1N      N/A     68  65  91 E6        30.13S
PLAINS 3N        N/A     68  65  90 NE3       30.17S
RALLS 1SE        N/A     69  66  90 SW10      30.15R
REESE CENTER     N/A     68  67  94 SW5       30.15S
SEAGRAVES 1SW    N/A     69  67  93 N3        30.15R
SEMINOLE 2NNE    N/A     69  65  89 NE6       30.14S
SLATON 2NE       N/A     68  64  89 W5        30.14R
SNYDER 3E        N/A     69  68  94 W6        30.10S
SUNDOWN 8SW      N/A     68  66  93 NW3       30.16S
TAHOKA 3NNE      N/A     66  64  94 N2        30.13S
WOLFFORTH 6SSW   N/A     67  67  97 S2        30.15S
$$

TXZ031-032-036>038-042>044-170300-
TEXAS TECH WEST TEXAS MESONET/ROLLING PLAINS

CITY           SKY/WX    TMP DP  RH WIND       PRES   REMARKS
ASPERMONT 3NE    N/A     76  70  82 S6        30.06R
FLUVANNA 3WNW  LGT RAIN  69  66  90 SE5       30.12S
GRAHAM 5SSW      N/A     68  65  92 CALM      30.12S
GUTHRIE 10WSW    N/A     74  68  81 S2        30.07R
HASKELL 1NW      N/A     77  67  71 S2        30.04S
JAYTON 1SSE      N/A     74  68  82 W7        30.07R
KNOX CITY 3NW    N/A     79  66  66 SW6       30.04R
ODELL 4ENE       N/A     77  69  74 S7        30.03R
PADUCAH 10SW     N/A     74  68  81 SW6       30.07R
POST 1NE       LGT RAIN  70  69  98 S5        30.11R
SEYMOUR 3NW      N/A     80  66  63 SW3       30.03R
SPUR 1W          N/A     71  68  88 SW2       30.09R
WEINERT 2NNE     N/A     78  68  72 W1        30.04R
WHITE RVR 6NE    N/A     71  66  85 W6        30.11R
$$

TXZ052-054-060>062-072-078-127-140-154-169-170300-
TEXAS TECH WEST TEXAS MESONET/PERMIAN BASIN/
CONCHO VALLEY/BIG COUNTRY/EDWARDS PLATEAU

CITY           SKY/WX    TMP DP  RH WIND       PRES   REMARKS
COYANOSA 2N      N/A     81  60  49 E6        30.07R
JUNCTION 1SSW    N/A     81  68  63 S10       30.04R
MERTZON 3NNE     N/A     81  67  62 E3        30.07R
SAN ANGELO 7NW   N/A     81  65  58 E5        30.05R
STRLNG CT 4WSW   N/A     80  64  59 NE6       30.09R
ST LAWRNCE 5SW   N/A     77  64  65 NE9       30.09R
SWEETWATR 11SW   N/A     73  68  83 N7        30.11R
WALL 1E          N/A     79  65  62 E5        30.05R
$$

TXZ055-058-074-075-080-082-170300-
TEXAS TECH WEST TEXAS MESONET/FAR WEST/SOUTHWEST MOUNTAINS/TRANS PECOS

CITY           SKY/WX    TMP DP  RH WIND       PRES   REMARKS
PRSMN GAP BBNP   N/A     81  64  55 NE15      30.04R
GUADLPE MTN NP   N/A     64  59  82 NE6       30.26R
$$


USA.gov is the U.S. government's official web portal to all federal, state and local government web resources and services.